Torna al catalogo

CHINASAT 6B

AttivoComunicazioniGEO
NORAD 31800·PAYLOAD·🇨🇳 China

Lanciato Jul 5, 2007 da Xichang Satellite Launch Center

Loading…

TLE

AggiornatoSource: Space-Track

Epoca: Sep 14, 2026, 04:37 UTC

1 31800U 07031A   26257.19289823 -.00000070  00000-0  00000-0 0  9995
2 31800   2.6685  78.4875 0005705 231.4992  29.8954  0.99058814 70274

Traccia CHINASAT 6B in tempo reale con AllMySat

Download on the App Store